FENGYUN 1C DEB, 31955

Orbit data source: Space-Track

FENGYUN 1C DEB, 31955 is space debris in SSO originally from a launch on Mon, 10 May 1999 UTC launched from the Taiyaun Space Center, China (TSC). Fengyun 1C debris stems from the Chinese weather satellite Fengyun-1C, which was intentionally destroyed by a Chinese anti-satellite missile in 2007. This event dramatically increased the amount of space debris, with thousands of trackable fragments posing hazards to satellites and human spaceflight. The Fengyun 1C debris cloud has become a focal point in discussions about space sustainability and the need for international regulations to prevent the creation of new debris.

Loading next visibility...
Identifier
31955, 1999-025CNG
Orbit
SSO
Country
Flag of CNCN / PRC
Related business
Manufacturer
Unknown
Mission
Spacecraft
Bus & Motor
Unknown
Mass
Unknown
Launch date (UTC)
1999-05-10 (27 years ago)
Launch vehicle
Unknown
Launch site
Taiyaun Space Center, China (TSC)
Object type
Payload
Rocket body
Debris
Shape & HBR
Unknown shape, 0.1 m
Radar Cross Section
Small (<0.1 m²)

Expand to show TLE details & history
Last TLE update: 21 hours ago

TLE from 21 hours ago
0 FENGYUN 1C DEB
1 31955U 99025CNG 26149.69207737  .00010937  00000-0  19355-2 0  9996
2 31955  99.2716  52.9669 0044237  31.1795 358.7525 14.66910587990170
Epoch: 2026-05-29T16:36Z
TLE epoch observation values (Epoch: 2026-05-29T16:36:35.484Z)
Latitude
29.54279°
Longitude
-88.67962°
Altitude
643.471 km
Speed
7.556 km/s
True Right ascension
03h 10m 44s
True Declination
29° 23' 35"
Sunlit
Object was in daylight at epoch
Visualization orbit readout
Latitude
Unknown
Longitude
Unknown
Altitude
Unknown
Speed
Unknown
Apparent Right ascension
Unknown
Apparent Declination
Unknown
Sunlit
N/A
Visualization observer readout
Local Sidereal Time
23:01:48
Azimuth
Unknown
Elevation
Unknown
Doppler factor
Unknown
Orbital elements
Apogee altitude
699.243 km
Perigee altitude
636.902 km
Semi-major axis
7,046.209 km
Eccentricity
0.00442
Inclination
99.2716°
RAAN
52.9669°
Arg. of periapsis
31.1795°
True anomaly
358.7414°
Mean anomaly
358.7525°
Eccentric anomaly
358.74696°
Mean motion
3.66952 °/min
Orbital period
98.11 mins
BSTAR
0.0019355
Loading maneuver chart data...
Computing Atmospheric mass density...
Loading historical data...
Loading historical data...
Loading historical data...
Loading historical data...
Loading historical data...
Loading historical data...
Loading historical data...

Documentation

Showing up to 5 results
|